RH
78 77 78 76 73 70 67 65 66 67 63 58 54 50 46 42 31 22 23 24 23 22 17 13 14 16 18 19 17 16 16 15 16 13 10 11 11 10 15 12 12 35 59 55 42 34 25 17 17 16 15 18 17 17 19 21 21 22 22 23 24 24 24
77 78 78 77 74 70 65 61 59 58 55 50 46 44 40 31 21 17 18 18 18 17 15 14 15 16 17 16 14 14 14 13 12 11 10 11 11 11 13 15 17 27 40 39 31 24 20 18 16 15 17 18 17 19 20 18 20 22 24 28 28 24 23
76 77 78 77 74 69 63 55 49 45 41 36 33 32 29 22 16 15 16 16 17 18 18 18 18 17 16 15 14 13 14 14 13 12 11 11 12 12 13 14 15 20 29 32 29 25 20 17 14 15 18 18 18 22 23 21 23 27 29 29 27 23 22
75 76 75 73 70 64 56 48 41 35 30 26 23 21 20 18 16 16 17 18 19 20 20 20 18 17 16 15 14 14 15 15 14 13 13 13 14 13 13 15 14 16 23 33 39 36 24 16 16 17 18 19 19 20 21 22 24 28 30 28 26 24 21
74 73 71 67 62 55 47 40 34 28 23 20 18 17 16 16 16 17 18 20 22 24 25 24 22 20 18 16 15 15 15 15 15 15 15 14 15 16 16 17 17 16 18 25 35 37 26 17 17 18 18 21 21 19 19 21 23 26 29 29 25 22 23
71 69 65 60 53 45 37 31 26 21 18 17 16 16 15 15 17 20 23 26 29 30 30 28 24 21 19 18 17 16 15 15 15 15 16 15 16 18 18 19 21 22 20 20 25 28 26 23 22 20 21 25 26 24 25 30 33 33 34 36 30 21 22
66 63 58 51 43 34 28 23 20 18 16 16 15 14 16 19 22 26 29 31 32 32 30 28 24 21 19 17 16 15 14 15 15 15 16 18 19 21 23 26 28 27 26 26 25 26 26 26 26 25 24 25 27 29 35 46 55 51 45 47 45 34 27
61 56 49 40 31 25 22 20 18 16 15 15 16 19 22 25 28 30 32 33 33 32 29 26 23 20 18 16 16 15 15 15 15 16 17 19 21 24 26 30 33 33 32 31 29 28 28 28 26 26 25 25 28 37 47 58 72 74 64 60 56 43 34
54 47 38 30 25 22 20 19 17 17 18 19 22 25 28 32 34 36 36 35 33 31 27 24 22 19 18 17 16 16 16 16 17 17 18 19 21 24 27 31 36 38 36 34 32 32 37 41 33 26 30 33 35 48 57 58 68 78 75 70 63 44 33
44 37 31 28 26 25 23 22 22 22 24 27 31 35 38 40 41 39 37 34 31 29 27 24 22 20 19 18 17 17 17 17 18 18 18 19 20 22 25 30 36 39 40 42 43 44 57 67 50 29 34 43 41 49 57 58 68 79 76 75 75 61 43
39 35 32 30 31 31 30 30 30 32 36 39 43 45 45 44 42 39 37 34 32 29 26 23 21 20 19 18 18 18 18 18 18 19 20 20 20 21 23 29 37 44 49 51 51 53 64 75 60 32 30 42 45 49 58 66 76 81 78 80 89 88 69
40 38 36 36 38 39 39 40 43 47 50 51 51 50 49 47 44 41 38 34 30 26 23 22 21 19 19 19 19 19 19 19 20 21 22 22 22 23 25 32 40 46 50 52 56 58 55 59 57 40 32 43 55 64 70 71 73 76 82 88 95 100 88
44 43 43 45 46 48 50 54 57 59 60 59 58 56 54 50 45 39 35 30 27 24 22 21 20 20 20 20 21 20 20 21 22 23 23 23 24 24 26 34 40 43 45 48 57 62 47 40 50 49 39 44 60 71 71 71 77 84 92 97 98 101 95
49 49 50 52 55 58 61 64 66 67 66 64 62 57 52 47 41 35 31 28 26 25 24 23 22 22 21 21 21 21 20 22 22 22 24 22 23 25 26 32 37 38 40 41 48 54 43 35 47 53 46 45 56 68 74 82 93 97 99 102 100 100 99
52 53 56 60 63 66 69 71 72 71 68 64 59 54 49 43 38 34 30 29 29 28 27 27 25 23 23 22 21 21 21 22 22 22 24 24 24 25 26 30 32 33 36 39 42 46 43 38 41 43 43 49 61 78 90 96 100 100 100 101 99 100 101
58 60 63 68 71 73 75 76 74 71 68 66 62 53 48 44 38 35 34 32 33 31 29 28 25 24 24 22 22 23 22 23 24 24 25 24 24 26 25 27 30 32 34 38 40 42 43 40 42 53 67 78 88 98 101 100 100 101 101 101 101 100 95
66 67 70 75 78 79 78 76 74 71 68 72 71 56 47 45 40 38 37 34 33 31 28 27 25 23 23 22 23 25 25 26 27 26 27 28 26 28 26 23 27 31 34 39 43 44 44 43 50 66 78 82 86 92 95 97 99 97 95 99 103 100 91
73 76 78 80 81 81 79 76 76 71 66 70 72 58 47 46 43 39 37 34 32 30 26 25 23 22 22 22 24 27 28 30 30 29 31 32 32 34 30 23 27 35 38 42 45 44 45 45 46 52 53 50 53 58 64 76 83 84 90 99 104 101 97
79 82 84 84 83 82 81 77 74 70 64 64 64 56 48 46 42 38 36 32 30 28 25 23 22 21 22 23 26 28 29 31 32 32 33 39 47 49 38 28 36 47 50 53 53 48 47 46 43 46 47 44 44 46 52 66 76 82 93 102 103 100 101
84 85 85 85 84 81 79 75 71 67 63 60 58 53 46 43 39 35 32 30 27 25 23 22 22 22 24 25 26 28 29 30 33 34 37 46 54 51 39 38 51 62 65 69 67 61 58 54 50 53 53 50 52 55 60 69 74 79 89 99 103 101 100
88 86 85 84 82 78 76 73 69 66 62 58 55 49 42 37 34 30 28 26 25 23 22 22 22 23 25 27 28 29 30 30 32 36 41 47 48 47 50 60 69 71 74 80 79 76 73 67 64 67 68 69 73 73 71 74 76 79 85 94 101 102 99
88 86 84 81 78 75 72 70 67 63 59 53 48 43 36 31 29 27 26 26 25 23 22 22 23 25 27 29 30 31 31 31 32 37 44 49 51 56 66 76 80 81 82 84 85 87 88 83 79 79 79 81 82 78 76 80 81 83 87 90 93 98 100
87 84 81 78 75 72 69 66 62 58 53 47 41 36 31 28 27 26 26 26 25 23 23 24 25 27 29 30 31 31 31 31 33 38 45 51 58 65 72 79 84 86 84 83 87 95 100 95 88 85 83 79 76 75 79 83 85 87 88 88 88 91 94
83 80 76 73 70 68 64 61 57 52 46 40 34 31 28 26 26 26 26 26 25 24 25 26 27 28 29 29 30 30 31 32 34 37 42 47 54 60 66 71 73 72 74 83 93 100 101 92 80 75 74 70 71 78 83 86 88 88 87 86 87 88 89
78 75 72 69 66 63 60 56 51 45 39 33 30 29 28 26 25 26 27 26 26 26 26 27 28 29 30 31 32 32 33 34 35 37 41 45 50 55 58 61 64 66 74 85 92 95 95 85 71 67 69 70 77 86 86 84 86 86 84 85 87 88 88
77 74 71 68 65 61 55 50 44 38 33 31 29 28 27 26 26 27 28 27 27 28 29 29 30 32 33 35 36 36 37 36 38 42 46 48 52 55 58 62 66 72 80 86 89 90 89 80 70 71 75 78 85 90 84 81 87 88 85 83 85 90 91
77 74 70 67 63 57 50 44 39 36 33 31 29 27 26 27 27 28 29 29 29 30 32 33 35 38 39 40 40 40 40 41 45 49 50 51 53 58 62 65 69 74 80 83 83 84 83 78 77 81 82 83 90 91 82 80 89 94 91 86 89 96 98
73 68 64 60 56 51 47 42 39 36 33 29 26 26 27 29 30 31 32 32 33 35 37 39 42 43 43 44 44 44 46 48 52 54 53 54 58 63 66 69 72 77 78 76 76 79 81 80 82 86 86 88 94 93 81 77 86 93 92 89 93 102 104
65 60 55 51 49 47 47 44 38 33 30 28 28 30 31 31 32 34 35 36 38 42 44 46 47 47 47 47 49 51 51 52 54 56 57 59 63 67 70 72 75 76 74 72 75 81 84 85 87 89 90 93 96 91 81 79 85 89 88 90 96 101 101
58 53 50 49 48 47 45 41 35 32 33 34 35 36 37 37 37 39 41 44 47 50 51 50 50 50 49 51 55 58 58 58 62 66 67 67 69 72 73 74 75 75 73 75 80 84 85 87 90 91 90 93 94 89 81 81 86 89 91 94 99 101 99
58 56 55 53 52 49 46 42 38 37 38 38 38 39 40 40 40 42 45 48 52 54 54 53 54 55 55 58 63 67 66 68 73 74 71 70 71 72 73 75 74 73 75 79 83 85 87 88 90 90 89 89 90 89 86 86 91 95 97 98 98 100 100
64 61 57 53 50 47 45 43 41 41 40 38 38 39 39 40 42 44 46 50 55 58 57 58 62 64 65 68 72 73 73 74 75 73 71 73 75 73 72 73 73 73 78 84 84 85 86 87 86 88 89 89 90 93 95 95 96 97 98 98 97 99 100
65 60 56 53 52 50 48 47 45 42 39 37 36 37 38 41 43 44 46 50 57 63 65 66 71 73 73 74 76 75 73 73 73 73 76 79 79 76 72 71 74 78 84 86 85 85 87 87 86 88 91 93 94 96 99 100 98 97 98 100 100 100 100
66 63 60 58 55 52 50 47 44 40 36 35 37 38 41 45 47 48 49 54 61 68 71 74 78 78 75 75 75 73 72 73 74 77 80 80 79 78 76 75 77 81 85 84 84 85 86 85 85 88 91 94 95 97 99 100 99 97 98 100 101 101 100
66 63 61 57 52 48 46 43 40 40 39 40 42 43 47 51 54 53 54 56 61 67 71 75 78 76 73 73 74 72 73 76 77 79 80 79 79 80 81 81 81 82 82 82 84 85 85 84 86 87 89 93 95 97 98 98 96 95 96 97 99 100 99
63 59 55 52 48 45 44 43 43 45 46 45 46 47 50 54 55 54 54 54 55 59 64 69 72 72 71 73 75 74 75 77 78 78 77 78 81 83 85 85 84 82 82 84 86 87 86 87 88 88 88 92 95 95 95 95 94 94 95 96 98 100 100
Wind_Speed
25 25 26 26 27 27 28 28 29 29 28 29 29 29 29 28 27 26 25 24 21 19 17 17 17 16 15 13 12 12 11 10 9 8 8 7 6 6 6 6 7 7 6 6 6 5 5 5 6 6 7 7 6 6 6 7 8 9 10 11 11 10 11
26 26 26 27 27 28 28 29 29 29 29 29 29 29 28 27 26 25 25 23 21 19 17 16 16 15 14 12 11 11 10 10 9 8 8 7 6 5 5 5 5 6 6 4 4 4 4 5 7 7 7 9 10 10 10 10 10 11 11 12 12 12 13
27 27 26 27 27 27 28 28 29 29 29 29 28 28 27 25 24 24 24 22 21 19 17 15 14 14 14 12 11 11 10 9 9 8 8 7 6 5 5 4 3 3 4 3 2 3 4 6 8 9 9 9 10 11 12 12 12 12 12 13 13 14 15
27 27 26 26 27 27 28 28 28 28 28 27 27 27 26 24 23 23 22 20 19 18 16 15 14 13 12 11 10 10 10 9 9 8 7 7 6 4 4 3 3 2 2 2 2 3 5 8 9 9 9 9 10 11 12 13 13 13 14 14 13 14 16
27 27 27 27 27 27 28 28 27 27 27 26 26 25 25 23 22 21 20 19 18 17 15 14 13 12 12 11 10 10 10 9 8 7 7 7 6 5 4 4 3 2 2 3 4 6 8 9 9 9 9 9 11 13 14 14 14 14 14 15 15 15 16
27 27 27 28 28 28 27 27 27 26 26 25 24 24 23 22 22 21 20 19 17 16 14 13 12 12 12 11 10 10 10 9 8 7 6 6 6 5 5 4 4 3 3 4 6 8 9 10 10 11 11 10 12 14 15 14 14 14 15 17 17 16 16
28 28 28 28 28 28 27 27 26 25 25 24 23 23 23 22 21 21 19 18 17 16 15 13 12 12 12 11 9 9 8 8 7 7 6 6 5 5 5 5 5 4 4 4 6 7 9 11 11 11 11 12 13 13 12 12 15 17 18 19 20 20 20
29 29 28 28 28 28 27 26 25 24 24 23 23 22 22 21 21 20 19 18 17 16 15 14 13 12 11 11 10 8 8 7 7 6 6 6 6 6 6 6 5 4 4 4 5 6 8 11 13 13 13 14 14 12 11 12 15 18 20 20 21 22 21
30 30 29 29 28 27 26 25 24 23 23 22 22 21 20 20 19 19 19 18 17 16 15 14 13 12 11 11 10 9 8 7 7 6 6 6 5 5 5 5 4 3 3 4 5 7 8 10 14 14 14 15 14 13 14 16 17 18 19 21 23 23 20
30 30 30 29 28 26 25 24 24 23 22 21 21 20 20 19 18 18 17 18 17 16 15 14 13 12 11 11 10 9 8 8 7 6 5 5 4 5 5 4 4 4 4 5 7 8 8 10 14 15 14 15 15 15 17 18 18 19 21 22 23 22 19
30 30 29 29 28 27 26 25 24 22 21 20 19 19 18 18 18 17 17 16 16 16 15 14 13 12 11 10 9 9 8 7 6 5 5 4 4 5 5 4 4 4 5 6 8 10 9 11 14 16 16 16 17 17 17 17 17 19 22 21 17 16 18
31 30 29 29 28 27 25 24 23 21 20 18 18 17 17 17 17 17 17 16 15 14 14 13 12 11 10 9 9 7 6 6 5 5 5 4 4 5 5 5 6 7 8 9 10 12 13 13 15 17 17 17 16 15 16 18 18 18 19 19 16 16 20
31 30 30 29 28 27 25 24 22 21 19 18 17 17 17 17 17 17 17 16 14 13 12 12 11 10 10 9 8 7 6 5 5 5 5 5 5 5 6 7 8 9 10 12 12 14 16 16 16 17 18 18 17 18 18 19 19 19 19 20 19 19 24
31 31 30 29 28 27 25 24 22 21 19 18 17 17 17 16 16 16 15 14 13 12 11 11 10 9 9 8 7 6 6 6 6 6 6 6 6 7 8 9 10 11 12 13 14 16 18 18 17 19 21 19 18 17 17 18 19 21 21 22 22 22 26
32 31 30 29 28 27 25 24 23 21 19 18 18 17 17 16 16 15 14 14 13 12 11 10 9 8 8 7 7 7 6 7 6 7 8 8 8 9 10 11 12 12 12 14 14 17 19 18 18 20 20 18 16 16 18 20 21 22 22 23 23 22 24
31 31 30 28 27 26 26 24 23 22 20 18 17 18 17 16 16 15 15 14 13 12 10 10 9 8 8 8 7 7 7 7 8 8 9 10 10 11 12 12 12 12 12 14 15 16 18 18 18 18 18 17 17 18 19 18 18 19 19 20 19 20 21
30 30 29 28 27 26 26 25 23 22 21 18 17 18 18 17 16 16 15 14 13 11 11 10 9 9 9 8 8 8 8 8 9 9 10 11 12 12 14 14 12 12 13 14 15 16 17 18 17 17 17 17 18 19 19 18 19 19 19 17 15 16 18
30 28 28 27 27 26 25 25 24 23 22 20 18 18 18 17 16 15 14 13 12 12 11 10 10 9 9 8 7 8 8 9 10 10 11 12 13 14 16 15 13 13 14 15 16 17 17 18 18 18 19 19 19 21 21 21 23 22 21 19 16 15 17
29 28 27 26 26 25 24 24 24 23 23 21 19 18 18 17 16 15 14 13 13 12 11 11 10 9 9 8 8 8 9 9 10 11 12 12 13 17 19 17 15 16 17 17 19 19 20 21 21 21 21 21 21 20 20 21 22 22 22 22 20 18 16
29 28 27 26 25 25 24 24 23 22 22 21 20 19 18 17 17 16 15 14 14 13 12 11 10 10 9 9 9 9 10 10 11 12 13 13 15 19 20 18 17 19 20 21 22 23 23 24 24 23 23 23 22 21 20 20 20 21 22 23 23 22 17
28 28 27 26 26 25 24 23 22 22 21 20 20 19 18 18 17 15 14 13 13 13 12 11 10 9 9 10 10 11 11 12 12 13 15 16 18 20 19 19 20 22 22 23 24 25 25 27 26 26 25 24 23 21 19 19 18 18 19 21 24 25 22
28 27 26 25 24 24 23 22 22 21 20 20 20 19 18 17 16 14 13 13 13 13 12 10 9 9 10 11 12 12 13 13 14 15 17 19 20 20 19 20 21 23 23 24 25 26 26 27 27 26 25 23 22 21 19 18 17 16 17 18 21 24 25
27 26 25 24 24 23 22 22 21 21 20 19 19 19 18 16 15 14 14 14 14 12 10 10 10 10 11 12 13 14 14 15 16 17 18 20 20 20 20 21 22 23 25 26 26 25 26 26 26 26 25 24 22 21 19 18 17 16 16 17 19 21 23
27 26 25 24 24 23 22 21 21 20 20 19 19 18 18 16 15 15 15 15 14 12 11 11 11 11 12 13 14 15 16 17 18 19 20 20 20 21 22 22 24 25 25 25 25 25 25 26 26 26 25 23 22 20 19 19 18 17 16 17 18 19 20
27 26 25 24 23 22 22 21 21 20 20 19 19 18 17 16 15 15 15 15 13 12 11 12 12 13 14 14 15 16 17 19 20 20 20 21 21 22 22 23 24 24 24 25 26 26 26 27 27 25 23 22 21 20 20 19 18 17 16 16 17 19 20
26 24 23 22 21 21 21 21 20 20 19 19 18 18 18 17 16 15 15 15 14 13 13 13 14 14 15 16 17 18 20 21 22 21 21 21 21 22 23 23 24 24 25 26 27 26 27 27 27 25 23 22 21 21 20 19 18 18 17 16 17 19 20
24 24 22 21 20 20 20 20 20 20 19 20 19 19 18 17 16 16 15 15 14 13 13 14 15 16 17 18 20 21 22 23 23 23 23 24 24 24 24 25 25 25 25 26 27 27 28 27 26 25 24 23 22 21 20 18 18 18 18 17 18 20 21
26 26 26 24 22 20 19 19 20 21 21 21 20 18 17 17 16 15 15 15 14 13 14 15 17 18 20 21 23 24 25 25 25 26 26 27 27 26 26 25 24 24 25 26 26 27 27 27 25 25 24 22 21 21 20 19 18 18 19 19 18 19 20
29 28 27 26 24 22 21 21 21 21 20 19 17 16 15 15 14 13 14 13 13 14 16 18 20 22 23 24 25 26 27 28 27 27 28 28 27 25 24 23 22 23 24 24 24 25 26 25 24 24 23 22 21 22 21 20 20 20 20 19 19 19 21
26 25 24 23 21 20 19 19 17 16 16 15 14 13 13 13 13 13 13 13 14 16 18 20 22 24 26 26 26 27 29 29 28 27 27 27 24 23 23 22 22 23 24 23 23 23 24 23 23 24 23 22 22 23 23 22 22 21 20 20 20 21 22
19 18 17 17 17 17 16 15 14 13 13 13 13 13 13 14 14 14 15 15 16 18 20 22 24 26 28 27 28 29 30 29 27 26 27 26 25 25 24 24 24 24 23 22 22 22 22 22 23 23 23 23 24 24 24 24 23 21 21 21 22 22 24
16 15 14 15 15 16 16 15 14 13 12 12 12 13 14 14 15 15 16 16 17 20 23 25 26 28 29 28 28 29 29 28 27 27 27 27 27 27 26 25 25 24 22 22 22 22 22 23 23 24 24 24 24 24 24 25 24 23 22 22 23 24 25
15 14 14 14 14 14 14 14 13 12 12 12 13 14 14 15 16 16 17 18 20 22 25 26 27 29 29 29 29 30 29 28 29 29 28 27 27 28 28 28 26 25 23 23 23 23 23 24 24 24 24 24 24 24 24 24 24 24 23 22 23 24 24
15 14 14 14 13 13 13 13 13 13 13 14 14 14 14 15 16 17 18 20 22 24 27 27 27 28 29 29 29 30 29 30 30 29 28 28 28 29 29 28 27 25 25 25 24 24 24 24 24 25 25 25 25 25 24 24 24 23 23 22 22 23 24
16 16 15 14 14 13 13 13 13 13 14 14 14 15 14 15 17 19 21 23 24 27 29 29 28 29 30 29 30 30 30 30 30 29 28 29 29 29 29 28 27 27 27 26 25 25 25 25 25 25 25 25 25 24 24 24 24 23 23 23 23 23 24
13 13 13 13 13 13 13 12 13 13 14 15 15 15 16 17 20 23 24 25 27 28 29 30 30 31 31 31 31 31 31 30 30 30 29 29 29 29 28 28 28 28 27 27 26 26 26 25 25 25 25 25 25 25 25 25 25 24 24 24 24 24 24
Wind_Direction
186 184 182 180 177 175 172 169 168 166 165 161 158 156 153 152 151 147 142 142 142 141 141 136 134 137 140 148 151 144 143 146 145 143 135 127 124 124 128 132 132 129 134 160 194 234 272 304 328 335 336 338 340 340 344 350 353 351 349 347 350 352 350
184 183 182 179 176 173 170 168 166 165 165 163 159 155 153 153 152 147 144 144 142 141 140 138 140 143 145 150 152 147 148 152 149 145 140 136 135 134 138 142 142 144 152 177 220 252 274 314 334 340 341 338 336 337 340 342 344 345 345 342 341 341 340
183 181 180 177 174 171 168 166 164 163 163 163 159 155 154 154 153 149 147 147 145 143 144 145 149 149 148 151 154 150 151 152 148 145 141 140 145 147 148 158 165 158 164 184 234 270 299 328 336 339 340 336 333 334 335 337 340 340 336 333 333 334 334
182 180 178 175 172 170 167 165 163 162 162 161 159 157 155 154 152 149 148 148 146 145 148 150 153 152 149 152 155 153 152 150 146 143 142 144 152 159 158 166 180 192 198 212 261 289 309 324 331 332 334 331 326 327 330 333 334 331 327 327 330 331 330
180 179 177 174 171 168 166 165 164 163 162 160 159 157 155 153 150 147 146 146 145 147 150 153 155 155 152 155 160 156 152 151 149 147 146 148 155 163 172 179 191 215 245 280 297 298 306 318 323 324 329 333 328 326 327 329 327 324 323 323 324 327 330
177 177 175 173 170 168 166 165 166 165 163 160 159 157 154 152 149 148 147 148 148 150 152 155 158 157 154 157 161 160 156 155 155 153 151 154 161 170 181 192 203 222 248 273 286 293 300 309 317 321 326 333 332 328 328 327 324 321 320 321 324 328 332
175 174 174 171 169 168 167 166 166 165 163 161 160 158 155 153 151 150 151 151 151 153 154 157 159 158 156 157 160 162 160 160 159 157 157 163 170 177 185 193 200 213 233 253 271 284 295 305 312 316 320 323 327 330 330 329 326 323 321 323 324 325 329
174 172 171 170 168 167 167 166 165 164 163 161 160 159 157 156 156 154 154 154 154 156 158 160 162 162 160 160 163 165 163 162 162 162 165 171 180 187 188 191 197 209 228 248 268 282 295 303 304 308 315 320 327 333 331 327 324 319 318 320 321 323 328
174 172 169 168 168 168 167 167 166 166 166 164 163 162 161 160 160 159 158 157 158 159 161 163 164 165 165 164 166 167 167 165 166 174 180 182 188 197 201 206 214 225 240 255 271 283 292 297 298 305 314 318 324 328 322 318 318 315 316 319 320 323 329
172 171 169 168 167 167 168 169 169 168 169 169 167 167 165 164 164 164 164 163 162 163 164 166 166 166 166 166 166 168 171 172 173 182 194 201 207 218 227 233 238 245 258 267 275 282 288 289 293 302 311 312 314 317 315 315 318 318 320 323 323 324 331
170 169 169 169 168 168 169 170 170 169 169 170 170 170 169 167 167 167 169 169 169 168 168 168 168 168 168 169 169 171 174 178 182 188 201 218 232 242 250 259 267 271 273 275 279 284 284 280 287 301 310 309 308 311 312 314 317 317 318 322 323 318 322
170 170 170 170 169 169 171 171 169 169 170 171 173 174 173 172 171 172 173 174 175 175 174 173 172 170 170 171 173 176 179 186 196 205 216 232 246 261 273 279 282 282 281 280 280 283 286 283 287 299 306 305 304 307 309 310 313 315 313 312 306 299 306
171 171 171 172 171 171 171 170 169 170 172 173 175 177 178 178 177 177 177 178 179 180 179 178 177 175 174 175 179 185 191 200 213 224 235 246 255 266 273 273 275 277 278 280 278 279 285 289 288 291 296 300 301 304 306 308 310 312 309 302 296 293 300
172 172 173 173 173 172 172 171 171 172 174 175 177 180 182 182 182 182 182 183 184 184 183 183 182 181 180 183 190 197 203 212 224 235 247 257 263 269 272 270 272 274 275 279 278 277 283 290 288 286 290 297 298 299 304 306 305 306 302 294 293 294 297
174 174 174 175 175 174 173 173 172 173 175 178 181 183 184 186 186 186 187 187 187 188 187 187 187 189 192 196 202 210 217 223 234 243 253 262 265 269 272 271 273 277 278 278 277 276 280 285 285 285 289 297 301 302 304 303 299 296 293 290 292 292 292
176 176 175 176 177 177 176 175 175 175 175 178 185 188 187 188 190 190 190 191 191 193 194 195 197 199 205 211 214 221 227 233 242 251 258 266 269 271 273 273 276 280 280 281 281 279 281 283 285 289 294 300 304 303 302 300 294 288 287 288 289 288 290
177 179 178 178 180 180 179 178 178 179 178 178 187 192 190 191 193 193 195 196 198 200 201 204 206 207 212 219 221 227 236 241 249 257 262 268 272 274 274 275 280 283 283 282 282 280 281 282 283 283 282 281 278 274 277 284 286 284 286 290 289 288 292
177 179 181 182 183 184 184 183 183 185 184 183 189 195 194 195 197 198 201 203 205 208 208 209 212 214 218 221 220 227 237 244 252 260 264 269 275 277 277 282 289 290 286 284 282 282 283 283 283 282 279 275 271 267 266 272 278 282 286 287 285 286 294
178 179 182 184 185 186 188 189 188 189 189 188 193 198 198 200 204 205 207 209 210 212 213 212 216 220 222 225 224 231 241 248 256 264 268 272 274 274 279 291 300 295 293 293 292 292 292 290 289 288 287 285 284 280 274 273 275 278 279 278 277 280 289
181 182 182 185 187 189 191 192 192 193 194 193 197 202 202 205 210 210 210 213 214 216 216 217 221 227 232 236 238 243 250 255 260 268 272 271 270 272 283 298 300 294 295 297 296 297 296 295 295 293 291 290 288 285 283 280 278 277 274 272 271 271 269
182 183 184 187 189 191 193 194 195 197 198 198 203 208 208 210 214 215 215 218 218 220 223 226 230 235 241 247 252 255 260 264 266 269 270 269 271 276 286 293 291 291 294 295 294 295 294 293 293 291 290 290 288 288 288 286 283 278 273 269 267 266 263
182 184 186 188 191 193 195 196 197 200 202 204 208 214 216 216 218 220 221 223 224 226 231 235 239 243 248 254 259 263 267 271 271 269 268 269 273 278 281 282 283 286 289 288 289 289 288 288 288 288 289 290 291 294 296 294 290 285 278 272 269 267 265
183 185 186 188 193 196 198 199 200 202 205 207 212 218 222 221 220 222 224 227 231 235 240 244 248 252 256 261 265 269 272 273 272 269 267 268 270 272 274 275 277 279 281 283 285 284 283 284 286 287 290 293 296 301 303 299 295 291 285 279 275 273 272
184 186 187 190 195 198 199 201 204 206 208 211 213 218 223 224 222 223 226 232 238 243 249 253 257 260 263 266 269 272 274 274 273 271 269 268 269 269 271 272 273 275 278 279 279 278 278 281 285 288 291 297 302 304 303 300 296 293 289 283 279 278 278
185 188 189 192 197 200 202 204 206 208 210 213 215 217 220 223 223 225 231 238 245 250 254 259 262 265 267 270 274 276 277 276 275 274 272 271 271 270 270 270 272 275 275 273 273 273 275 279 285 290 295 300 302 301 299 299 298 297 295 290 285 283 280
184 187 190 194 199 202 205 206 208 210 211 213 215 216 217 220 224 228 235 242 248 253 258 263 268 270 273 275 277 278 279 279 278 276 274 273 272 271 271 272 273 275 274 272 272 273 275 280 287 292 294 296 295 293 296 299 299 298 299 296 293 290 287
186 188 191 195 199 204 207 208 210 212 212 213 213 213 215 220 225 230 236 242 249 256 265 271 272 273 274 276 277 279 280 281 280 279 277 277 276 275 274 275 277 277 275 274 274 275 277 281 286 287 288 289 289 289 295 299 296 294 297 300 298 293 289
191 192 194 196 197 200 203 208 211 212 212 212 211 212 214 219 226 232 239 248 257 265 270 272 271 271 273 275 277 280 280 280 279 278 279 278 278 277 277 278 278 276 274 274 276 276 278 281 282 283 285 286 286 287 294 299 296 291 294 298 295 287 285
196 198 200 200 199 199 199 205 211 212 211 212 213 215 219 225 233 242 250 258 265 267 268 268 268 270 272 274 276 278 279 279 278 277 277 277 278 279 280 280 278 276 277 279 279 277 278 279 281 282 284 285 284 287 293 296 293 290 292 293 288 281 281
205 206 206 206 206 206 206 209 212 209 207 209 212 218 226 235 244 252 256 260 261 260 262 264 266 268 270 272 274 275 276 277 277 277 278 280 281 283 284 284 282 281 283 284 282 279 279 280 281 282 284 285 285 288 293 293 289 288 288 285 280 277 279
212 212 212 211 209 207 207 208 207 202 202 207 212 220 231 239 247 251 254 256 257 257 259 261 264 267 270 272 272 273 274 275 276 277 281 285 286 287 286 286 285 286 287 285 283 281 281 281 282 283 285 286 286 288 290 290 287 285 281 279 277 275 275
214 213 210 208 206 204 204 205 204 203 207 214 220 229 237 243 247 250 253 256 256 257 258 260 261 264 268 269 270 271 273 276 278 281 284 285 286 288 288 287 288 290 289 285 282 282 281 282 283 284 284 285 285 284 284 284 283 281 278 277 276 273 274
215 214 209 205 204 205 206 208 208 213 223 231 238 245 249 251 254 256 257 257 254 254 257 258 259 262 265 267 269 272 276 280 281 283 284 284 285 287 289 290 292 291 287 283 282 282 282 283 284 284 283 283 282 280 278 278 278 279 278 275 274 273 274
213 214 214 213 211 211 214 219 224 231 239 245 250 255 257 258 259 257 256 255 253 253 255 257 258 261 264 267 270 274 278 280 281 282 283 284 285 286 288 291 292 289 285 284 285 284 283 284 284 283 281 280 279 277 275 274 274 276 275 272 271 272 274
215 217 220 222 224 226 229 231 236 241 245 250 254 257 257 256 255 253 252 252 252 253 255 257 259 262 266 269 272 275 276 277 279 281 282 283 285 285 287 288 288 287 286 286 286 285 285 286 285 284 282 279 276 274 273 272 273 275 274 272 271 272 273
214 216 219 223 227 231 234 237 242 248 253 256 258 258 256 253 252 254 255 256 257 258 259 260 262 265 268 270 272 274 275 276 278 280 282 283 283 283 284 284 285 286 287 286 285 285 285 285 283 283 281 277 274 272 272 273 274 275 274 273 272 271 272